Regional Weather Roundup
Issued by NWS

Home | Current Version | Previous Version | Text Only | Print | Product List | Glossary On
Versions: 1 2 3 4 5 6 7 8 9 10 11 12 13 14 15 16 17 18 19 20 21 22 23 24 25 26 27 28 29 30 31 32 33 34 35 36 37 38 39 40 41 42 43 44 45 46 47 48 49 50
000
ASUS42 KKEY 231710
RWRKEY

FLORIDA REGIONAL WEATHER ROUNDUP FOR THE FLORIDA KEYS
NATIONAL WEATHER SERVICE KEY WEST FLORIDA
100 PM EDT TUE SEP 23 2014

...SOUTH FLORIDA AND THE KEYS...

CITY           SKY/WX    TMP DP  RH WIND       PRES   REMARKS
FORT MYERS     CLOUDY    73  71  93 S13       30.02S
SW REGIONAL AP CLOUDY    77  67  71 S17       30.03F
NAPLES         LGT RAIN  73  70  90 SE6       30.03F
MIAMI          CLOUDY    76  71  85 SW12      30.04S
WEST KENDALL   LGT RAIN  76  70  82 SW8       30.06F
HOMESTEAD      RAIN      73  71  93 S7        30.05F FOG
MARATHON       CLOUDY    81  32  17 CALM      30.02F
BOCA CHICA NAS CLOUDY    77  73  87 E8        30.02S
KEY WEST INTL  CLOUDY    81  73  76 E8        30.02S

...INTERNATIONAL WEATHER...

CITY           SKY/WX    TMP DP  RH WIND       PRES   REMARKS
NASSAU BAHAMAS NOT AVBL
CANCUN MEXICO  PTSUNNY   88  75  66 SE10      29.97F HX  97
COZUMEL MEXICO LGT RAIN  75  73  94 SE9       29.98S

ADJACENT COASTAL WATERS...

STATION/POSITION TIME  SKY/WX   TEMP    WIND        PRES    WAVE
                                AIR SEA DIR/SP/G            HT/PER
                 (UTC)          (F)     (DEG/KT/KT) (MB)    (FT/S)
PULASKI SHOAL LI 1700            80     110/ 12/ 14 1015.9F
SAND KEY         1643            79     100/ 12/ 16 1016.1F
SOMBRERO KEY     1700            80      90/  4/  6 1017.1F
LONG KEY         1600            79 83  230/  8/  9 1018.2R
MOLASSES REEF    1700            79 85  140/ 10/ 11 1016.9F
FOWEY ROCKS      1700            79 85  250/ 13/ 15 1017.6R
Buoy 42080       NOT AVBL

$$



USA.gov is the U.S. government's official web portal to all federal, state and local government web resources and services.